2023-077C

Last updated on Fri Jun 02 2023 00:02:04 GMT+0000 (Coordinated Universal Time)

1 56763U 23077C 23151.71576022 .09706180 70447-5 56789-2 0 9993 2 56763 41.6094 255.3798 0170661 147.5568 342.1595 15.93220012 227

Satellite not in orbit

2023-077C